This is the latest recevied weather packets stored in our database for station/object KD8OZS. If no packets are shown the sender has not sent any weather packets the latest 10 day(s).
| Time | Temp. | Humidity | Pressure | Rain* | Wind** | Luminosity | Snow |
|---|---|---|---|---|---|---|---|
| 1778069102 | 7.22° C | 97% | 1001.6 hPa | 0 mm | - | 97 W/m² | - |
| 1778068799 | 6.67° C | 97% | 1001.7 hPa | 0 mm | - | 82 W/m² | - |
| 1778068497 | 6.67° C | 97% | 1001.3 hPa | 0 mm | - | 58 W/m² | - |
| 1778068195 | 6.67° C | 97% | 1001.5 hPa | 0 mm | - | 38 W/m² | - |
| 1778067892 | 6.67° C | 97% | 1001.4 hPa | 0 mm | - | 25 W/m² | - |
| 1778067591 | 6.67° C | 98% | 1001.7 hPa | 0 mm | - | 18 W/m² | - |
| 1778067288 | 6.67° C | 98% | 1001.4 hPa | 0 mm | - | 19 W/m² | - |
| 1778066984 | 6.67° C | 98% | 1001.5 hPa | 0 mm | - | 14 W/m² | - |
| 1778066682 | 6.67° C | 98% | 1001.8 hPa | 0 mm | - | 12 W/m² | - |
| 1778066379 | 6.67° C | 98% | 1001.8 hPa | 0 mm | - | 8 W/m² | - |
| 1778066077 | 6.67° C | 98% | 1001.7 hPa | 0 mm | - | 11 W/m² | - |
| 1778065774 | 6.67° C | 98% | 1001.5 hPa | 0 mm | - | 6 W/m² | - |
| 1778065472 | 6.67° C | 98% | 1001.1 hPa | 0 mm | - | 7 W/m² | - |
| 1778065168 | 6.67° C | 98% | 1000.9 hPa | 0 mm | - | 5 W/m² | - |
| 1778064865 | 6.67° C | 98% | 1001.3 hPa | 0 mm | - | 2 W/m² | - |
| 1778064562 | 6.67° C | 98% | 1000.9 hPa | 0 mm | - | 0 W/m² | - |
| 1778064260 | 6.67° C | 98% | 1001.4 hPa | 0 mm | - | 0 W/m² | - |
| 1778063958 | 6.67° C | 98% | 1001.5 hPa | 0 mm | - | 0 W/m² | - |
| 1778063655 | 6.67° C | 98% | 1001 hPa | 0 mm | - | 0 W/m² | - |
| 1778063352 | 6.67° C | 98% | 1000.3 hPa | 0 mm | - | 0 W/m² | - |
| 1778063050 | 6.67° C | 98% | 1000.7 hPa | 0 mm | - | 0 W/m² | - |
| 1778062747 | 6.67° C | 98% | 1000.3 hPa | 0 mm | - | 0 W/m² | - |
| 1778062443 | 6.67° C | 98% | 1000 hPa | 0 mm | - | 0 W/m² | - |
| 1778062140 | 6.67° C | 98% | 999.6 hPa | 0 mm | - | 0 W/m² | - |
| 1778061839 | 6.67° C | 98% | 999.5 hPa | 0 mm | - | 0 W/m² | - |
* Rain latest hour (hover to see other rain measurements)
** Current wind speed in m/s (hover to see current wind gust speed)